Location: Chris' Backyard Observatory
(47.3045°N, 122.2839°W)
Time: 00:17:47
(UTC-07:00)

Daily predictions for brighter satellites

Satellite Brightness Start Highest point End
(mag) Time Altitude Azimuth Time Altitude Azimuth Time Altitude Azimuth
CENTAUR R/B 4.1 03:24:35 31° NNE 03:24:35 31° NNE 03:28:34 10° NE
CZ-4C R/B 3.8 03:25:40 41° ENE 03:25:40 41° ENE 03:31:24 10° ESE
Cosmos 1943 Rocket 4.4 03:29:28 19° E 03:29:28 19° E 03:32:06 10° NE
ADEOS II 4.5 03:30:01 10° NE 03:33:24 17° E 03:33:24 17° E
Cosmos 2369 Rocket 3.2 04:10:47 43° NE 04:10:47 43° NE 04:14:36 10° NNE
Cosmos 2184 Rocket 4.0 04:28:50 10° N 04:34:29 73° N 04:34:29 73° N
Resurs 1-4 Rocket 4.2 04:33:05 10° N 04:34:26 17° NNW 04:34:26 17° NNW
USA 215 3.4 04:38:34 10° NE 04:44:55 55° NNW 04:45:29 54° NW
SJ 16-02 4.5 04:49:51 10° ESE 04:51:35 12° E 04:53:20 10° ENE
PSLV R/B 4.3 04:48:57 10° NNE 04:53:07 49° E 04:53:12 49° ESE
CZ-2D R/B 4.2 04:56:21 10° N 04:57:34 15° NNW 04:57:34 15° NNW
Lacrosse 5 2.7 05:01:40 40° N 05:01:40 40° N 05:06:05 10° NE
Tiangong 2 4.2 05:05:12 11° SE 05:05:12 11° SE 05:05:17 10° SE
USA 229 DEB 3.8 05:00:36 38° SSW 05:03:19 69° SE 05:10:14 10° NE
USA 229 3.9 05:00:40 38° SSW 05:03:24 69° SE 05:10:19 10° NE
CZ-4B R/B 4.0 05:04:48 10° NNE 05:10:06 49° E 05:15:27 10° S
Cosmos 1943 Rocket 2.0 05:11:02 66° W 05:11:18 67° WNW 05:16:53 10° NNE
CZ-4C R/B 2.9 05:10:58 45° WNW 05:12:49 56° WSW 05:20:32 10° SSE
ADEOS II 1.9 05:08:28 10° N 05:13:44 71° WNW 05:14:20 64° WSW
Cosmos 2074 Rocket 4.4 05:07:49 10° NNW 05:12:37 44° WNW 05:12:37 44° WNW
CENTAUR R/B 4.1 05:11:47 21° NW 05:14:04 24° NNW 05:20:02 10° NE
Nadezhda 1 Rocket 3.9 05:12:06 27° SSW 05:15:52 78° W 05:22:15 10° N
Milstar 3 4.5 05:16:48 15° SSW 05:18:01 16° S 05:22:02 10° SSE
USA 267 4.1 05:12:18 10° SSE 05:16:50 31° SSW 05:16:50 31° SSW
Okean O Rocket 1.8 05:15:35 10° NNE 05:19:59 71° ESE 05:22:26 26° S
ATLAS 3B R/B 4.4 05:22:13 10° NW 05:27:38 24° NNE 05:32:53 10° ENE
Cosmos 2150 Rocket 3.9 05:27:11 44° SW 05:28:51 73° WNW 05:34:13 10° NNE
Cosmos 1898 Rocket 3.7 05:30:29 46° WNW 05:30:45 47° WNW 05:35:46 10° NNE
CZ-2C R/B 4.1 05:26:42 10° SSE 05:31:24 67° ENE 05:36:06 10° N
IRS-1C Rocket 4.4 05:26:59 10° NNE 05:32:16 66° ESE 05:37:30 10° S
Cosmos 1937 Rocket 3.5 05:31:03 46° WSW 05:32:25 61° WNW 05:37:41 10° NNE
Cosmos-2242 3.1 05:29:09 10° N 05:33:27 74° E 05:37:44 10° SSE
Cosmos 1758 Rocket 3.5 05:32:45 24° SSW 05:35:26 82° W 05:39:59 10° N
ERBS 2.4 05:38:40 65° NNW 05:39:02 74° NE 05:42:29 10° ESE
Cosmos 1125 Rocket 4.5 05:36:33 10° S 05:41:34 48° ESE 05:46:40 10° NNE
Cosmos 2154 Rocket 4.1 05:38:24 10° NNW 05:44:34 54° W 05:50:39 10° SSW
Meteor 1-31 Rocket 2.8 05:46:28 10° NNE 05:50:18 79° ESE 05:54:06 10° S
Cosmos 2227 Rocket 3.2 05:46:19 10° NNW 05:51:48 46° NE 05:57:15 10° SE
COSMO-SKYMED 1 3.5 05:49:16 10° SE 05:53:27 49° ENE 05:57:39 10° N
Cosmos 2369 Rocket 3.3 05:52:37 24° WNW 05:53:30 25° NW 05:58:09 10° N
Cosmos 1340 Rocket 3.4 05:53:57 36° WNW 05:53:57 36° WNW 05:57:37 10° N
MTI 4.0 05:50:47 10° SSE 05:54:01 71° ENE 05:57:17 10° N
Cosmos 990 Rocket 4.3 05:52:50 31° WSW 05:54:47 44° WNW 05:59:44 10° NNE
SL-8 Rocket 4.0 05:50:40 10° N 05:57:01 90° W 06:03:21 10° S
CZ-4B R/B 3.7 05:56:18 10° N 05:58:45 27° NW 05:58:45 27° NW
Cosmos 1707 3.1 06:01:41 28° SW 06:03:13 41° WNW 06:06:59 10° N
Cosmos 2221 4.5 06:01:18 10° N 06:05:15 32° ENE 06:09:12 10° SE
Cosmos 1842 Rocket 3.9 06:01:00 10° N 06:05:23 67° E 06:09:42 10° SSE
Meteor 2-21 4.4 05:59:39 10° NNW 06:05:38 63° W 06:11:37 10° S
Cosmos 1048 Rocket 3.9 06:03:17 10° NNW 06:08:27 70° WSW 06:13:39 10° SSE
SJ-6F 4.3 06:05:30 10° N 06:09:35 81° WNW 06:13:40 10° SSW
Cosmos 1378 3.8 06:11:20 24° WSW 06:12:49 33° WNW 06:16:17 10° N
Cosmos 2219 3.4 06:12:23 10° NW 06:17:51 49° WSW 06:23:14 10° S
Cosmos 1908 4.3 06:15:04 10° N 06:18:50 48° ENE 06:22:32 10° SSE
CZ-2C R/B 4.3 06:15:40 10° NNE 06:20:11 35° E 06:24:48 10° SSE
Cosmos 2218 Rocket 3.9 06:15:49 10° NNW 06:22:00 71° W 06:28:16 10° S
SKYMED 3 4.5 06:19:07 10° SSE 06:23:27 83° W 06:27:49 10° NNW
EO 1 Del DPAF 3.3 06:21:33 10° S 06:25:19 57° WSW 06:29:08 10° NNW
Cosmos 158 Rocket 4.4 06:20:44 10° NW 06:25:48 43° WSW 06:30:51 10° S
Cosmos 1953 Rocket 4.5 06:23:37 13° SW 06:26:47 27° WNW 06:30:28 10° NNW
USA 215 4.1 06:21:19 10° ENE 06:27:14 38° N 06:32:49 12° WNW
Meteor 2-5 Rocket 3.9 06:21:39 10° SSW 06:27:24 53° WNW 06:33:07 10° N
MINOTAUR R/B 4.3 06:26:35 14° NW 06:28:42 50° WSW 06:31:16 10° S
SJ 16-02 1.2 06:25:08 10° SSW 06:29:32 75° WNW 06:33:57 10° NNE
Cosmos 2297 Rocket 2.5 06:24:10 10° NNW 06:29:50 72° ENE 06:35:28 10° SE
Meteor 2-16 Rocket 4.5 06:27:06 10° NNW 06:33:08 58° W 06:39:09 10° S
Meteor 2-1 Rocket 4.3 06:27:29 10° NNW 06:33:26 75° W 06:39:15 10° S
USA 81 4.2 06:30:32 10° SSW 06:35:38 50° W 06:40:48 10° N
Cosmos 2082 3.9 06:31:09 10° NNW 06:36:52 78° ENE 06:42:30 10° SSE
Cosmos 1656 Rocket 4.3 06:32:38 10° WSW 06:37:50 35° NW 06:43:01 10° NNE
ATLAS CENTAUR R/B 3.7 06:36:37 10° N 06:39:05 16° NE 06:41:35 10° ENE
SKYMED 2 3.7 06:37:14 10° S 06:41:29 54° W 06:45:46 10° NNW
Cosmos 2181 Rocket 4.3 06:35:48 10° SW 06:41:39 42° WNW 06:47:28 10° N
Cosmos 1356 Rocket 4.3 06:40:16 10° SW 06:44:01 29° WNW 06:47:49 10° N
In-Cosmos 22 4.2 06:38:40 10° SSW 06:44:15 69° WNW 06:50:00 10° N
BREEZE-M DEB (TANK) 4.0 06:40:38 11° WSW 06:44:47 89° N 07:01:59 10° ENE
Lacrosse 5 3.3 06:41:00 10° WNW 06:45:19 27° N 06:49:39 10° ENE
Cosmos 1356 3.7 06:42:31 10° SSW 06:45:53 46° WNW 06:49:16 10° N
CZ-4B R/B 4.1 06:45:52 10° N 06:50:26 28° WNW 06:55:03 10° WSW
Cosmos 1300 4.4 06:48:39 10° N 06:52:15 37° ENE 06:55:49 10° SE
ADEOS II 3.9 06:50:21 10° NNW 06:52:32 13° NW 06:54:42 10° WNW
NOSS 3-1 (C) 3.7 06:47:00 10° WSW 06:52:47 55° NW 06:59:24 10° NE
Meteor 1-28 Rocket 4.4 06:50:11 10° SW 06:53:13 22° W 06:56:16 10° NW
USA 229 DEB 4.4 06:48:29 10° W 06:54:47 38° NNW 07:01:17 10° NE
USA 229 4.4 06:48:34 10° W 06:54:52 38° NNW 07:01:22 10° NE
Okean O Rocket 3.3 06:53:18 10° NNW 06:55:51 15° WNW 06:58:22 10° W
Cosmos 1943 Rocket 3.8 06:52:54 10° WNW 06:56:11 16° NW 06:59:30 10° N
NOSS 3-1 (A) 3.5 06:52:27 10° SW 06:58:18 66° NW 07:05:01 10° NE
CZ-4C R/B 4.4 06:57:32 10° W 07:00:17 12° WSW 07:03:08 10° SW
Cosmos 2369 4.2 06:54:48 10° SSW 07:00:24 69° ESE 07:06:02 10° NNE
IDEFIX/ARIANE 42P 2.6 07:00:21 10° N 07:05:37 76° WNW 07:10:49 10° SSW
CENTAUR R/B 4.5 07:01:27 10° NW 07:07:22 25° NNE 07:13:49 10° ENE
